[[{"header":{"parameterUnit":"m.s-1","parameterCategory":1,"la1":30.2991,"la2":30.254,"lo1":-89.0895,"lo2":-89.0444,"dy":0.0017,"dx":0.0017,"nx":28,"ny":28,"refTime":"2024-09-25T21:00:00:Z","depth":0,"parameterNumber":2,"parameterNumberName":"U-component_of_WINDS"},"data":[0,0,0,0,0,0,0,0,0,0,0,0,0,0,0,0,0,0,0,0,0,0,0,0,0,0,0,0,0,0,0,0,0,0,0,0,0,0,0,0,0,0,0,0,0,0,0,0,0,0,0,0,0,0,0,0,0,0,-1.5424,-1.5424,0,-1.5511,-1.5512,-1.5513,-1.5544,-1.5544,-1.5543,-1.5543,-1.5632,-1.5635,-1.5637,0,0,0,0,0,0,0,0,0,0,0,0,0,-1.5277,-1.528,-1.5423,-1.5425,-1.5426,-1.5511,-1.5512,-1.5514,-1.5544,-1.5544,-1.5543,-1.5543,-1.5631,-1.5634,-1.5638,0,0,0,0,0,0,0,0,0,0,0,0,0,-1.5351,-1.5281,-1.5423,-1.5451,-1.5454,-1.5511,-1.5513,-1.5514,-1.5544,-1.5544,-1.5543,-1.5543,-1.563,-1.5634,-1.5638,-1.5673,0,0,-1.565,-1.5652,0,0,0,0,0,0,0,0,-1.5346,-1.5356,-1.5446,-1.5449,-1.5453,-1.5516,-1.5494,-1.5567,-1.5544,-1.551,-1.5543,-1.5542,-1.5594,-1.5601,-1.5618,-1.5677,-1.5681,-1.5651,-1.5653,-1.5655,-1.5656,0,0,0,0,0,0,0,-1.5341,-1.5352,-1.5458,-1.5447,-1.5452,-1.5458,-1.5468,-1.5508,-1.5554,-1.5513,-1.5515,-1.5525,-1.5596,-1.5614,-1.5621,-1.5682,-1.5651,-1.5654,-1.5657,-1.5658,-1.577,-1.5771,0,0,0,0,0,0,-1.5332,-1.5348,-1.5455,-1.5461,-1.5397,-1.5461,-1.5472,-1.5496,-1.5553,-1.5562,-1.5526,-1.5526,-1.5608,-1.5616,-1.5624,-1.5667,-1.5655,-1.5659,-1.5661,-1.577,-1.577,-1.5771,0,0,0,0,0,0,-1.5329,-1.5341,-1.5452,-1.5405,-1.542,-1.5464,-1.5491,-1.5498,-1.5517,-1.5563,-1.5571,-1.5537,-1.5608,-1.5618,-1.566,-1.5671,-1.5661,-1.5664,-1.5769,-1.577,-1.5771,-1.5755,0,0,0,0,0,0,-1.5324,-1.534,-1.5355,-1.5405,-1.5422,-1.5488,-1.5492,-1.5501,-1.5524,-1.5526,-1.5576,-1.5583,-1.5608,-1.5654,-1.5664,-1.5676,-1.5667,-1.5768,-1.5769,-1.577,-1.5755,-1.5755,-1.5756,0,0,0,0,0,-1.5319,-1.5348,-1.5356,-1.5369,-1.5442,-1.5489,-1.5498,-1.5527,-1.5525,-1.554,-1.5568,-1.5582,-1.5667,-1.5658,-1.567,-1.5683,-1.5768,-1.5769,-1.577,-1.5755,-1.5755,-1.5756,0,0,0,0,0,0,-1.53,-1.5355,-1.5365,-1.5411,-1.5444,-1.5494,-1.5514,-1.5527,-1.5561,-1.5562,-1.5595,-1.5605,-1.5644,-1.5667,-1.5656,-1.5718,-1.5718,-1.5722,-1.5702,-1.5703,-1.5703,-1.5698,-1.5671,0,0,0,0,0,-1.53,-1.5334,-1.5381,-1.5417,-1.5433,-1.547,-1.5491,-1.5509,-1.5546,-1.556,-1.5592,-1.5626,-1.566,-1.5683,-1.5717,-1.5757,-1.5767,-1.5772,-1.5772,-1.5772,-1.5776,-1.5796,-1.5798,-1.5775,-1.5775,-1.5775,0,0,-1.5304,-1.5338,-1.5358,-1.5414,-1.5442,-1.5475,-1.5482,-1.5517,-1.5542,-1.5566,-1.5607,-1.563,-1.567,-1.571,-1.573,-1.5731,-1.5783,-1.5774,-1.5773,-1.5777,-1.5797,-1.5799,-1.5801,-1.5776,-1.5776,-1.5776,0,0,-1.5326,-1.5355,-1.5388,-1.5415,-1.5456,-1.548,-1.5487,-1.5533,-1.555,-1.5591,-1.5609,-1.5636,-1.5696,-1.5722,-1.5744,-1.5769,-1.5782,-1.5779,-1.5782,-1.5801,-1.5803,-1.5805,-1.5813,-1.5816,-1.5782,-1.5781,-1.5781,0,-1.5325,-1.5376,-1.5403,-1.5436,-1.5459,-1.548,-1.5511,-1.5536,-1.5587,-1.5602,-1.5602,-1.5674,-1.5702,-1.5748,-1.5753,-1.577,-1.5778,-1.5775,-1.5801,-1.5803,-1.5805,-1.5813,-1.5816,-1.5781,-1.5781,-1.5781,-1.5781,0,-1.5371,-1.5405,-1.5426,-1.5473,-1.5498,-1.553,-1.556,-1.5582,-1.5596,-1.5618,-1.5658,-1.5692,-1.5732,-1.5743,-1.5759,-1.579,-1.5789,-1.5794,-1.5796,-1.5806,-1.5814,-1.5817,-1.578,-1.578,-1.578,-1.5781,0,0,-1.539,-1.5447,-1.5454,-1.5474,-1.5519,-1.5545,-1.5576,-1.5614,-1.5632,-1.5664,-1.569,-1.5736,-1.574,-1.5764,-1.5781,-1.5798,-1.5814,-1.5801,-1.5802,-1.5802,-1.5849,-1.5845,-1.5849,-1.5821,-1.5822,-1.5822,-1.5845,0,-1.5418,-1.5476,-1.5498,-1.5545,-1.5575,-1.5592,-1.5619,-1.5648,-1.5668,-1.5696,-1.5717,-1.575,-1.5753,-1.5767,-1.5784,-1.5809,-1.5824,-1.5807,-1.5845,-1.5846,-1.5837,-1.5853,-1.5851,-1.5872,-1.5849,-1.5849,-1.585,0,-1.5461,-1.5492,-1.5541,-1.5578,-1.5592,-1.5616,-1.565,-1.5676,-1.5708,-1.5721,-1.5745,-1.576,-1.5791,-1.5787,-1.5829,-1.5817,-1.5833,-1.5846,-1.5848,-1.5854,-1.585,-1.5861,-1.5879,-1.5882,-1.5855,-1.5855,-1.5854,0,-1.547,-1.5523,-1.5559,-1.5575,-1.5619,-1.5635,-1.5654,-1.5685,-1.5705,-1.5734,-1.5747,-1.5779,-1.5797,-1.5821,-1.5843,-1.5839,-1.5882,-1.5881,-1.5893,-1.5893,-1.5905,-1.5904,-1.5926,-1.5912,-1.5912,-1.5912,-1.5912,0,-1.5501,-1.553,-1.5563,-1.5585,-1.5617,-1.564,-1.567,-1.569,-1.5716,-1.5741,-1.5756,-1.5779,-1.5807,-1.5832,-1.5849,-1.588,-1.5888,-1.5899,-1.5903,-1.5898,-1.5897,-1.5911,-1.5911,-1.5913,-1.5913,-1.5913,-1.5912,0,-1.5518,-1.5541,-1.5581,-1.5617,-1.5626,-1.5648,-1.5678,-1.5699,-1.5717,-1.5748,-1.5756,-1.5786,-1.5816,-1.5839,-1.5879,-1.589,-1.5923,-1.5927,-1.5912,-1.5915,-1.5926,-1.5925,-1.596,-1.5965,-1.5946,-1.5946,-1.5946,0,-1.5538,-1.556,-1.5597,-1.5614,-1.5632,-1.566,-1.568,-1.5701,-1.572,-1.5754,-1.5771,-1.5801,-1.5828,-1.5874,-1.5898,-1.5928,-1.5933,-1.5943,-1.5938,-1.5931,-1.5934,-1.5933,-1.5934,-1.5945,-1.5945,-1.5945,-1.5945,0,-1.557,-1.5579,-1.5606,-1.5636,-1.5658,-1.5683,-1.5708,-1.5721,-1.5746,-1.5766,-1.5797,-1.5816,-1.5855,-1.5885,-1.5915,-1.5933,-1.5943,-1.5945,-1.595,-1.5947,-1.5937,-1.5942,-1.5915,-1.5946,-1.5946,-1.5946,-1.5946,-1.5946,-1.559,-1.5609,-1.5637,-1.5666,-1.5685,-1.5707,-1.5727,-1.5746,-1.5772,-1.5805,-1.5814,-1.5845,-1.5871,-1.5913,-1.593,-1.5953,-1.5954,-1.5961,-1.5963,-1.5964,-1.5964,-1.5931,-1.5959,-1.5959,-1.5959,-1.5959,-1.5959,0,-1.5623,-1.564,-1.5666,-1.5699,-1.572,-1.5725,-1.5751,-1.5769,-1.5795,-1.5818,-1.5842,-1.5875,-1.5902,-1.5926,-1.5954,-1.5967,-1.5972,-1.5974,-1.5974,-1.5978,-1.5962,-1.5955,-1.5969,-1.5969,-1.5969,-1.5969,-1.5969,-1.5969,-1.5644,-1.5676,-1.5686,-1.5727,-1.5744,-1.5773,-1.5787,-1.5806,-1.5824,-1.586,-1.5882,-1.5896,-1.5919,-1.5947,-1.5972,-1.5978,-1.5988,-1.5988,-1.5995,-1.5981,-1.5979,-1.5978,-1.5972,-1.599,-1.599,-1.601,-1.601,-1.601]},{"header":{"parameterUnit":"m.s-1","parameterCategory":1,"la1":30.2991,"la2":30.254,"lo1":-89.0895,"lo2":-89.0444,"dy":0.0017,"dx":0.0017,"nx":28,"ny":28,"refTime":"2024-09-25T21:00:00:Z","depth":0,"parameterNumber":3,"parameterNumberName":"V-component_of_WINDS"},"data":[0,0,0,0,0,0,0,0,0,0,0,0,0,0,0,0,0,0,0,0,0,0,0,0,0,0,0,0,0,0,0,0,0,0,0,0,0,0,0,0,0,0,0,0,0,0,0,0,0,0,0,0,0,0,0,0,0,0,-7.017,-7.0174,0,-7.0574,-7.0579,-7.0584,-7.0636,-7.0633,-7.0629,-7.0625,-7.1041,-7.1055,-7.1069,0,0,0,0,0,0,0,0,0,0,0,0,0,-6.9446,-6.9459,-7.0169,-7.0175,-7.018,-7.0574,-7.0579,-7.0585,-7.0637,-7.0632,-7.0628,-7.0623,-7.1036,-7.1053,-7.1071,0,0,0,0,0,0,0,0,0,0,0,0,0,-6.9796,-6.9463,-7.0169,-7.0253,-7.0265,-7.0572,-7.0579,-7.0586,-7.0638,-7.0632,-7.0626,-7.0621,-7.103,-7.1051,-7.1073,-7.1325,0,0,-7.114,-7.115,0,0,0,0,0,0,0,0,-6.9777,-6.9823,-7.0236,-7.0248,-7.0262,-7.0549,-7.0477,-7.0834,-7.064,-7.0496,-7.0625,-7.0618,-7.0882,-7.0916,-7.1004,-7.1344,-7.1362,-7.1142,-7.1155,-7.1165,-7.1171,0,0,0,0,0,0,0,-6.9752,-6.9806,-7.033,-7.0242,-7.0258,-7.0272,-7.0316,-7.0544,-7.0717,-7.0508,-7.0513,-7.056,-7.0888,-7.0983,-7.1014,-7.1368,-7.1142,-7.1161,-7.1175,-7.1183,-7.1938,-7.1945,0,0,0,0,0,0,-6.9712,-6.9785,-7.0317,-7.0342,-7.0,-7.029,-7.0339,-7.0463,-7.0714,-7.0747,-7.0565,-7.0561,-7.0948,-7.0989,-7.1029,-7.1343,-7.1165,-7.1185,-7.1198,-7.1931,-7.194,-7.1947,0,0,0,0,0,0,-6.9696,-6.9759,-7.0301,-7.0065,-7.0135,-7.0309,-7.0448,-7.0474,-7.0569,-7.0757,-7.0788,-7.063,-7.0945,-7.0998,-7.1252,-7.1358,-7.1195,-7.1215,-7.1923,-7.1934,-7.1943,-7.1969,0,0,0,0,0,0,-6.9675,-6.9753,-6.9849,-7.0067,-7.0148,-7.0515,-7.0454,-7.0486,-7.0606,-7.0606,-7.0827,-7.0858,-7.0945,-7.1218,-7.1273,-7.1385,-7.1232,-7.1914,-7.1928,-7.194,-7.196,-7.1979,-7.1996,0,0,0,0,0,-6.9649,-6.984,-6.9854,-6.9918,-7.0271,-7.0521,-7.0567,-7.0663,-7.0615,-7.0714,-7.0835,-7.0851,-7.1337,-7.1244,-7.1306,-7.1426,-7.1908,-7.1924,-7.1939,-7.1952,-7.1975,-7.1995,0,0,0,0,0,0,-6.963,-6.987,-6.9888,-7.0155,-7.0317,-7.0529,-7.0657,-7.0685,-7.0865,-7.0857,-7.0968,-7.1018,-7.1267,-7.1372,-7.1264,-7.1684,-7.1618,-7.1647,-7.1606,-7.1631,-7.1648,-7.1618,-7.1251,0,0,0,0,0,-6.9657,-6.9839,-7.0039,-7.0255,-7.0336,-7.0482,-7.0595,-7.0655,-7.0828,-7.0897,-7.1037,-7.1204,-7.1396,-7.1519,-7.1705,-7.1975,-7.2025,-7.2089,-7.2106,-7.212,-7.2144,-7.2297,-7.2329,-7.1998,-7.1998,-7.1997,0,0,-6.9714,-6.9868,-6.9976,-7.0255,-7.0388,-7.0575,-7.054,-7.0739,-7.0879,-7.0927,-7.1175,-7.1284,-7.1479,-7.1742,-7.1865,-7.1838,-7.2247,-7.214,-7.215,-7.2166,-7.2317,-7.2348,-7.2375,-7.2008,-7.2006,-7.2005,0,0,-6.9914,-7.0048,-7.0244,-7.0378,-7.058,-7.0677,-7.0724,-7.0934,-7.1008,-7.1259,-7.13,-7.1469,-7.1794,-7.1933,-7.2045,-7.2301,-7.2323,-7.2358,-7.2453,-7.2601,-7.2627,-7.2651,-7.2744,-7.2776,-7.2381,-7.2381,-7.2381,0,-6.996,-7.0243,-7.0341,-7.054,-7.0663,-7.0715,-7.0916,-7.1042,-7.1294,-7.1378,-7.1343,-7.1755,-7.189,-7.2188,-7.225,-7.234,-7.2398,-7.2334,-7.2615,-7.264,-7.2664,-7.2754,-7.2788,-7.2384,-7.2384,-7.2384,-7.2383,0,-7.029,-7.0486,-7.062,-7.0864,-7.1002,-7.12,-7.133,-7.1458,-7.1507,-7.1608,-7.1864,-7.2028,-7.2249,-7.2324,-7.2373,-7.263,-7.2607,-7.2592,-7.2528,-7.2697,-7.2783,-7.2818,-7.2389,-7.2388,-7.2387,-7.2386,0,0,-7.0489,-7.0785,-7.0833,-7.0945,-7.1173,-7.1327,-7.1529,-7.1746,-7.1854,-7.2027,-7.2201,-7.2476,-7.2466,-7.2593,-7.2659,-7.2789,-7.2984,-7.2759,-7.2766,-7.2796,-7.3279,-7.3289,-7.3327,-7.2999,-7.3006,-7.3012,-7.3263,0,-7.0716,-7.1077,-7.1173,-7.148,-7.1663,-7.1717,-7.1894,-7.2053,-7.2154,-7.2325,-7.2436,-7.263,-7.26,-7.2678,-7.2809,-7.2932,-7.3082,-7.2915,-7.3163,-7.317,-7.3113,-7.3372,-7.3384,-7.3613,-7.3298,-7.3303,-7.3308,0,-7.103,-7.121,-7.1535,-7.1742,-7.1823,-7.1979,-7.2187,-7.235,-7.2533,-7.2597,-7.2741,-7.2795,-7.3009,-7.2934,-7.3231,-7.3115,-7.3223,-7.3299,-7.331,-7.3337,-7.3249,-7.3408,-7.3688,-7.3723,-7.3362,-7.3357,-7.3353,0,-7.1144,-7.1468,-7.1705,-7.1799,-7.2046,-7.2155,-7.2263,-7.2441,-7.2566,-7.2748,-7.283,-7.3034,-7.3146,-7.3303,-7.3412,-7.3346,-7.3701,-7.3634,-7.3762,-7.3759,-7.3834,-7.3828,-7.4137,-7.3901,-7.3901,-7.39,-7.3899,0,-7.1389,-7.1586,-7.176,-7.1906,-7.2129,-7.2239,-7.2457,-7.2567,-7.2725,-7.2895,-7.2953,-7.3111,-7.3244,-7.342,-7.3506,-7.3741,-7.3791,-7.385,-7.387,-7.3845,-7.3838,-7.3917,-7.3905,-7.3909,-7.3907,-7.3905,-7.3904,0,-7.1554,-7.1678,-7.194,-7.2153,-7.2212,-7.2367,-7.255,-7.2695,-7.2797,-7.3011,-7.3068,-7.323,-7.3441,-7.3564,-7.383,-7.3888,-7.4148,-7.4161,-7.4086,-7.4096,-7.4217,-7.4205,-7.4589,-7.4646,-7.437,-7.4373,-7.4375,0,-7.1702,-7.1855,-7.2085,-7.2203,-7.2313,-7.2501,-7.263,-7.2744,-7.2875,-7.3097,-7.3216,-7.343,-7.3608,-7.3943,-7.4084,-7.4289,-7.4308,-7.4428,-7.4339,-7.4309,-7.4312,-7.4302,-7.4318,-7.4443,-7.4446,-7.4448,-7.445,0,-7.1953,-7.2008,-7.219,-7.2395,-7.2547,-7.2714,-7.288,-7.2973,-7.3116,-7.3261,-7.3477,-7.3615,-7.3888,-7.4101,-7.4318,-7.443,-7.4465,-7.4477,-7.4518,-7.4494,-7.4445,-7.4475,-7.4129,-7.4467,-7.4466,-7.4464,-7.4463,-7.4463,-7.2116,-7.2256,-7.244,-7.2642,-7.2779,-7.2934,-7.3081,-7.3203,-7.3386,-7.3616,-7.3673,-7.3901,-7.4083,-7.4378,-7.4496,-7.4676,-7.4656,-7.4714,-7.473,-7.4743,-7.4747,-7.4415,-7.4716,-7.4716,-7.4715,-7.4715,-7.4715,0,-7.2371,-7.2493,-7.2678,-7.2909,-7.3069,-7.3088,-7.3273,-7.3406,-7.3606,-7.3773,-7.3947,-7.4197,-7.4405,-7.4563,-7.4776,-7.4891,-7.4912,-7.4943,-7.4936,-7.4962,-7.4752,-7.4696,-7.4922,-7.4922,-7.4922,-7.4922,-7.4922,-7.4922,-7.2523,-7.2761,-7.2838,-7.3146,-7.3267,-7.3491,-7.3596,-7.3739,-7.3873,-7.415,-7.4323,-7.4425,-7.459,-7.4816,-7.5007,-7.5049,-7.5125,-7.5154,-7.5198,-7.4999,-7.4976,-7.4955,-7.4903,-7.5169,-7.5169,-7.5393,-7.5395,-7.5396]}]]